EW9959 Weather Reports


time (UTC)temp
C
wind
direction
speed
KPH
gust
KPH
rain 1hr
cm
rain 24hr
cm
rain mn
cm
humidity
%
barometer
mb
20260504150905 20 147 4.8 11.3 0.00 0.00 0.00 51 991.2
20260504150405 20 299 4.8 14.5 0.00 0.00 0.00 49 991.4
20260504140905 17 270 4.8 8.0 0.00 0.00 0.00 65 991.7
20260504130404 7 287 0.0 0.0 0.00 0.00 0.00 99 991.8
20260504110404 3 202 0.0 0.0 0.00 0.00 0.00 99 991.0
20260504100404 3 183 0.0 0.0 0.00 0.00 0.00 99 991.0
20260504080904 4 202 0.0 0.0 0.00 0.00 0.00 99 990.8
20260504080404 4 167 0.0 0.0 0.00 0.00 0.00 99 990.8
20260504050405 7 170 0.0 3.2 0.00 0.00 0.00 94 991.4
20260504040903 6 172 0.0 0.0 0.00 0.00 0.00 98 991.9
20260504040405 7 169 0.0 1.6 0.00 0.00 0.00 98 991.9
20260504030904 7 196 1.6 1.6 0.00 0.00 0.00 94 991.9
20260504030404 7 171 1.6 3.2 0.00 0.00 0.00 94 991.8
20260504020904 8 180 0.0 0.0 0.00 0.00 0.00 93 991.8
20260504020406 8 173 0.0 1.6 0.00 0.00 0.00 91 991.5
20260504010904 10 192 1.6 1.6 0.00 0.00 0.00 84 991.1
20260504010404 10 201 1.6 1.6 0.00 0.00 0.00 83 991.1
20260504000404 16 197 0.0 8.0 0.00 0.00 0.00 57 990.6
20260503230904 20 283 3.2 4.8 0.00 0.00 0.00 35 990.8
20260503220904 20 256 4.8 8.0 0.00 0.00 0.00 37 991.1
20260503220404 20 240 4.8 14.5 0.00 0.00 0.00 37 991.1
20260503210404 21 197 4.8 16.1 0.00 0.00 0.00 36 991.5
20260503200905 22 272 4.8 9.7 0.00 0.00 0.00 37 992.1
20260503200405 22 216 6.4 11.3 0.00 0.00 0.00 37 992.5
20260503190905 21 290 8.0 9.7 0.00 0.00 0.00 35 993.4
20260503190406 21 283 4.8 14.5 0.00 0.00 0.00 37 993.3
20260503170905 20 282 9.7 12.9 0.00 0.00 0.00 37 994.7
20260503170405 20 311 4.8 11.3 0.00 0.00 0.00 43 994.6